Wind_Speed
18 18 18 18 18 18 18 17 17 17 17 17 16 16 16 16 15 16 15 14 14 14 14 14 14 14 13 13 12 12 12 11 11 11 11 11 10 10 10 10 9 9 8 8 8 8 8 7 7
20 19 20 20 20 20 19 19 18 17 17 18 18 17 17 17 17 17 16 16 16 16 16 16 16 15 15 14 14 13 13 13 12 12 12 12 12 12 11 11 11 10 10 10 10 10 10 9 8
21 21 21 22 22 21 20 20 20 19 19 19 19 18 18 18 18 18 18 18 17 17 17 17 16 16 16 15 15 15 15 15 14 13 13 13 13 13 13 13 13 12 12 12 12 12 11 11 10
23 23 23 23 23 22 21 22 21 21 21 21 20 20 20 19 19 19 19 19 19 18 18 18 18 18 17 16 16 16 16 16 16 15 15 15 14 14 14 15 14 14 14 14 13 13 13 12 12
24 24 24 24 23 23 23 23 22 22 22 22 22 21 21 21 21 20 21 21 20 20 20 19 19 19 19 18 18 18 18 18 18 17 17 17 16 16 16 16 16 16 16 15 15 15 15 15 15
24 25 25 24 25 24 25 25 24 24 24 24 23 23 23 22 22 22 22 22 22 21 21 21 21 20 21 20 20 20 19 19 19 19 18 18 18 18 17 17 17 17 17 17 17 17 17 17 17
24 25 26 26 26 26 26 26 26 25 24 24 24 24 24 24 23 23 23 24 23 23 22 22 22 22 22 22 21 21 21 20 20 20 20 19 19 19 19 19 19 19 19 19 18 18 19 19 18
25 26 26 26 26 26 27 27 26 26 25 25 25 25 25 25 24 24 24 25 24 24 23 23 23 23 24 23 23 23 22 22 22 21 21 21 21 21 21 21 21 21 20 20 20 20 20 20 20
25 26 26 25 27 27 28 28 28 27 26 26 26 26 26 26 26 26 26 25 25 25 24 24 24 24 24 24 24 24 24 24 23 23 23 22 22 22 22 22 22 22 22 22 22 22 21 21 21
26 27 26 26 27 28 29 29 29 29 28 27 27 27 26 27 27 27 27 27 27 26 25 25 25 25 25 25 24 24 24 24 24 25 24 24 24 24 24 24 23 23 24 23 23 23 23 23 23
26 26 26 27 28 29 30 30 30 30 29 28 28 28 28 28 28 28 28 27 28 27 26 26 26 26 26 26 25 25 26 26 26 26 26 26 26 26 26 26 26 25 25 25 25 24 25 25 25
26 25 26 27 29 29 30 30 29 30 30 30 30 29 29 29 28 27 28 28 28 28 28 28 27 27 26 27 27 27 27 28 28 27 27 27 27 27 27 27 27 27 27 27 26 27 27 27 27
27 26 27 28 29 30 30 30 30 30 30 30 30 30 30 30 29 29 29 30 30 29 29 29 29 29 28 28 28 29 29 29 29 29 28 29 29 29 29 29 29 29 28 28 29 29 29 30 30
27 28 29 29 29 30 30 30 30 29 30 30 30 30 30 31 30 31 30 30 31 31 31 30 30 30 30 30 30 30 31 31 30 30 30 30 30 30 30 30 30 30 30 31 31 32 32 31 31
28 29 29 29 29 29 30 31 30 29 30 30 31 31 31 32 32 32 31 32 32 33 32 32 31 31 31 31 32 32 32 32 32 31 31 32 32 32 32 31 31 31 32 32 33 33 32 32 32
29 30 30 29 29 30 31 30 30 30 31 31 31 32 32 33 34 33 33 33 33 34 34 33 33 34 33 33 33 33 33 33 33 34 33 33 32 32 32 33 32 32 33 34 34 34 34 33 33
30 30 30 29 30 31 32 31 31 31 32 32 32 32 33 34 34 35 35 35 35 35 35 35 35 35 35 35 35 35 35 35 35 35 34 33 33 33 33 34 34 34 34 35 35 35 35 34 34
29 29 29 29 29 31 32 32 31 32 33 34 34 34 35 35 36 36 36 37 37 37 37 36 36 36 37 37 37 36 36 36 35 35 35 35 34 34 34 35 35 34 35 35 35 35 35 35 35
28 29 28 28 28 29 31 31 31 32 33 34 34 34 35 35 36 37 37 37 38 38 38 38 38 38 38 38 37 37 37 36 36 36 36 37 37 37 36 36 36 35 35 34 34 35 36 36 36
28 28 28 28 28 29 30 31 32 32 32 33 34 34 34 35 35 36 37 37 37 38 38 38 39 39 39 38 38 38 38 37 37 37 37 37 38 38 37 37 36 36 36 36 36 36 36 37 37
28 28 28 27 28 29 30 30 31 31 31 32 33 33 34 36 35 36 37 38 38 38 38 38 38 39 40 40 39 39 40 40 40 39 39 39 39 39 39 38 38 39 38 38 38 37 37 38 39
27 28 29 28 28 28 29 30 28 29 30 31 32 33 34 35 35 36 37 38 39 38 38 39 39 39 40 41 42 42 42 41 41 41 41 41 41 41 41 41 40 40 40 40 39 39 39 40 40
28 28 29 29 29 29 29 31 29 28 29 30 31 32 33 35 35 35 35 37 38 38 38 39 40 40 41 42 43 43 43 43 43 43 43 43 43 43 43 43 42 42 42 41 41 41 41 41 41
28 28 29 29 29 30 29 30 30 28 29 29 30 32 33 34 35 34 34 35 36 37 38 39 39 40 41 42 44 45 46 46 45 44 45 45 44 44 44 44 43 42 42 42 42 42 42 41 41
28 28 29 30 30 30 29 30 30 29 29 29 29 30 31 33 34 34 34 34 35 36 37 38 38 39 40 42 43 45 46 46 46 45 45 46 45 44 44 44 44 43 43 42 43 43 43 43 42
28 29 30 31 31 30 30 30 29 30 30 29 29 30 31 32 33 33 34 34 34 35 36 37 38 38 39 40 42 44 45 46 46 45 45 46 45 45 45 44 43 43 43 43 43 43 43 44 44
28 29 30 31 32 31 31 31 29 29 30 30 29 29 30 31 32 32 33 33 34 34 35 36 37 37 38 39 40 42 43 44 45 45 44 45 45 46 46 45 44 43 43 43 42 43 43 44 44
28 28 29 30 31 32 32 31 31 30 30 30 30 30 30 31 32 32 32 33 33 34 35 35 36 37 38 39 38 39 40 42 43 44 44 45 46 47 47 46 45 45 44 44 43 42 43 43 44
27 28 29 31 32 33 34 32 31 31 31 31 31 30 30 30 31 31 32 32 33 34 35 36 37 37 38 38 38 38 39 40 41 42 43 44 45 46 46 46 46 46 45 44 44 43 44 44 45
28 29 29 30 32 33 33 31 29 30 31 32 32 31 30 30 29 31 32 32 32 34 35 36 36 36 37 37 38 38 38 39 40 41 42 43 44 43 43 44 45 45 45 45 45 46 46 45 45
Wind_Direction
247 246 246 246 247 249 250 250 249 248 250 249 250 247 246 249 252 255 253 250 248 245 244 242 241 239 239 241 243 244 244 244 243 242 241 242 244 246 248 248 249 249 250 250 249 247 248 252 254
248 248 248 247 247 250 251 252 251 249 251 251 249 247 247 249 252 254 253 250 248 246 244 243 242 242 241 242 243 243 244 245 245 245 244 244 246 247 247 247 248 250 252 253 253 253 254 257 258
250 250 249 248 248 251 253 252 251 251 251 251 251 250 249 250 252 254 253 252 249 246 244 245 244 243 243 243 243 243 244 245 246 247 247 246 248 249 248 248 250 253 255 255 256 255 256 258 258
251 251 250 250 250 250 252 252 251 252 251 252 252 252 252 251 251 252 251 251 249 247 245 245 244 243 244 245 245 246 245 246 246 247 247 247 248 251 252 252 252 254 256 257 257 256 256 257 257
252 252 251 251 251 250 251 251 251 252 253 252 252 252 251 253 252 251 250 249 249 247 245 245 245 244 244 246 247 247 247 247 247 248 249 250 251 252 253 255 256 256 257 258 258 258 257 258 258
253 253 251 251 251 251 250 251 250 251 252 252 251 252 251 252 252 251 249 248 247 245 244 245 245 245 245 245 247 247 247 248 249 249 251 252 253 254 255 256 258 260 261 262 261 261 261 262 261
256 254 251 250 250 250 251 252 252 251 252 252 251 252 252 251 252 251 249 247 245 244 243 245 246 246 247 246 246 246 247 247 249 250 251 253 255 256 256 257 259 261 262 263 264 264 263 263 262
256 255 253 252 250 249 251 253 253 253 254 253 252 251 251 251 250 250 248 246 245 243 242 244 245 246 247 246 246 247 247 248 249 251 253 255 257 258 258 258 259 261 262 263 265 265 264 263 263
257 255 255 254 252 250 251 253 254 255 255 254 253 252 250 250 250 249 247 246 245 244 244 244 245 245 245 246 246 247 248 249 250 252 255 257 258 259 260 261 262 263 264 264 264 265 264 263 263
258 257 256 255 253 252 252 253 254 255 255 254 253 251 250 250 249 249 247 246 245 245 245 245 246 246 245 246 247 248 249 249 251 254 256 257 259 259 260 262 263 264 265 263 264 264 264 263 263
260 259 258 255 254 254 254 254 254 254 253 253 252 250 248 248 248 248 247 246 245 245 245 246 247 248 247 247 248 248 250 251 252 255 257 257 259 260 261 262 263 264 265 265 264 263 263 263 263
261 260 258 257 255 254 254 254 254 253 253 253 252 250 248 248 247 246 246 245 245 245 245 246 247 248 248 248 249 250 252 253 254 255 257 258 259 261 262 263 264 264 264 264 264 264 263 263 263
261 259 258 257 258 256 254 253 253 252 253 252 251 250 248 247 247 247 247 247 246 245 246 246 247 248 248 249 250 252 253 254 255 256 257 259 259 261 262 263 264 264 264 264 264 264 264 264 264
263 261 260 259 259 257 255 253 251 251 252 252 252 251 249 246 247 247 247 247 246 246 246 247 248 249 250 250 251 252 253 255 256 258 258 259 260 261 262 263 263 264 265 265 265 265 265 265 264
262 261 260 259 258 257 254 251 250 250 251 251 252 251 250 247 246 247 246 246 246 247 247 247 249 250 250 251 251 252 253 254 255 257 259 260 261 262 263 264 264 264 265 266 266 266 265 265 264
261 261 260 258 258 257 255 252 251 251 251 252 253 252 250 248 247 247 247 246 246 247 248 248 250 251 251 251 252 252 253 255 256 257 259 260 262 263 263 263 264 265 266 267 266 265 265 263 263
262 261 261 258 257 257 256 254 252 253 253 253 254 254 252 250 248 248 247 246 246 248 248 249 250 251 252 252 252 253 254 255 256 256 258 260 261 263 265 265 265 266 267 267 265 264 263 263 262
264 264 263 260 258 259 258 256 253 253 254 255 256 255 253 251 249 248 248 247 248 249 250 249 250 251 253 253 253 253 254 255 255 256 258 260 262 264 265 266 266 266 267 266 266 264 263 262 261
263 263 263 260 259 259 258 256 254 254 255 255 255 255 254 251 250 248 248 247 248 249 250 250 250 251 252 253 253 253 254 255 256 258 260 262 264 266 266 266 265 265 266 266 266 265 263 262 261
263 263 262 260 259 260 258 258 257 257 257 257 255 255 253 250 249 248 247 248 248 250 251 252 252 252 252 252 253 254 254 255 257 259 260 263 265 265 266 265 265 265 265 265 265 265 264 263 262
263 263 262 263 262 262 261 260 258 258 258 259 258 257 254 250 249 249 249 249 249 251 251 252 252 252 252 252 253 255 255 257 258 260 261 263 264 265 265 265 265 265 263 263 264 264 264 264 263
263 263 263 263 265 262 263 264 261 258 258 259 259 259 256 252 250 250 250 250 250 251 252 252 252 252 252 252 253 254 256 257 258 260 262 263 264 265 265 264 264 264 263 263 263 263 264 264 263
263 262 262 263 264 264 263 265 263 260 260 260 260 260 257 254 252 252 252 252 252 252 253 253 253 253 254 254 254 255 257 258 259 260 262 263 264 265 265 264 263 263 263 264 264 264 264 264 263
264 264 264 264 265 265 265 266 265 264 264 263 262 260 259 255 253 253 254 254 254 254 254 254 255 256 256 256 256 257 257 259 260 261 262 263 264 266 265 265 264 264 263 264 264 264 264 263 263
263 264 265 265 266 268 267 266 267 266 266 265 264 262 261 256 255 255 256 256 255 256 256 257 257 258 258 259 258 259 258 259 260 261 262 262 263 264 264 264 264 263 264 264 263 264 263 262 262
264 263 265 267 269 269 267 267 267 266 268 268 266 264 261 259 258 258 257 256 256 256 257 257 259 260 260 261 260 259 258 259 260 261 262 261 261 262 262 263 263 263 263 264 263 263 263 262 262
264 265 266 268 269 269 269 270 268 268 269 269 268 265 261 260 261 259 258 258 257 257 257 258 259 260 261 262 262 261 260 260 260 260 260 260 260 261 261 262 263 262 262 263 263 262 262 262 261
265 265 265 266 268 269 269 270 270 270 270 270 268 265 262 260 260 259 258 258 259 259 258 259 260 261 262 262 263 263 262 261 260 260 260 260 260 261 261 261 261 261 261 262 262 261 262 262 262
265 264 266 266 266 269 271 271 271 270 270 269 267 265 263 262 259 258 258 258 258 259 260 260 261 262 263 263 264 264 263 263 263 262 261 260 261 262 261 261 260 260 260 260 261 261 262 262 263
264 264 266 267 266 268 270 271 270 269 269 268 266 264 263 261 260 258 258 257 258 259 260 261 262 263 263 264 265 264 264 264 264 264 263 262 261 261 261 262 260 259 259 261 263 263 262 263 263
Height
5825 5826 5827 5829 5830 5830 5830 5832 5833 5834 5835 5835 5836 5837 5838 5839 5841 5844 5843 5843 5843 5844 5845 5846 5847 5848 5849 5850 5851 5852 5852 5853 5854 5855 5855 5856 5856 5857 5858 5858 5858 5859 5859 5859 5860 5860 5861 5861 5861
5821 5823 5824 5825 5825 5826 5828 5829 5830 5831 5831 5832 5832 5833 5834 5835 5837 5838 5838 5839 5840 5841 5842 5843 5844 5845 5846 5847 5849 5850 5851 5851 5852 5853 5854 5854 5855 5855 5856 5856 5857 5857 5858 5858 5858 5859 5859 5859 5860
5817 5818 5820 5820 5821 5823 5824 5825 5826 5827 5827 5828 5829 5829 5831 5832 5833 5834 5835 5836 5837 5838 5839 5840 5842 5843 5844 5845 5846 5847 5848 5849 5850 5851 5852 5852 5853 5854 5854 5854 5855 5856 5856 5856 5857 5857 5857 5858 5858
5813 5814 5815 5816 5817 5819 5820 5821 5821 5822 5823 5824 5824 5825 5826 5828 5829 5830 5831 5832 5834 5835 5836 5837 5838 5840 5841 5842 5843 5844 5846 5847 5848 5848 5849 5850 5851 5851 5852 5852 5853 5853 5854 5854 5854 5855 5855 5856 5856
5807 5808 5810 5810 5812 5814 5815 5816 5817 5818 5819 5819 5820 5821 5822 5824 5825 5825 5826 5828 5829 5831 5832 5834 5835 5836 5838 5839 5840 5841 5842 5844 5845 5845 5846 5847 5848 5848 5849 5849 5850 5851 5851 5851 5852 5852 5853 5853 5853
5802 5803 5804 5805 5807 5809 5810 5810 5812 5813 5814 5815 5815 5817 5817 5819 5820 5821 5822 5823 5825 5827 5828 5829 5831 5832 5834 5835 5836 5838 5839 5840 5841 5842 5843 5844 5844 5845 5846 5846 5847 5847 5848 5848 5849 5849 5849 5850 5850
5797 5797 5798 5799 5801 5803 5804 5805 5806 5808 5808 5810 5810 5811 5812 5814 5815 5816 5817 5818 5820 5822 5823 5825 5826 5828 5829 5831 5832 5834 5835 5836 5837 5838 5839 5840 5841 5841 5842 5842 5843 5843 5844 5844 5845 5845 5845 5846 5846
5790 5791 5792 5793 5795 5797 5798 5799 5801 5802 5803 5804 5805 5806 5807 5809 5810 5811 5812 5813 5815 5817 5818 5820 5821 5823 5825 5826 5828 5830 5831 5832 5833 5834 5835 5836 5837 5837 5838 5838 5839 5839 5840 5840 5840 5841 5841 5841 5842
5783 5786 5786 5788 5789 5791 5792 5793 5795 5796 5797 5798 5799 5800 5802 5803 5804 5806 5807 5808 5810 5812 5813 5815 5816 5818 5820 5822 5823 5825 5826 5828 5829 5830 5831 5832 5832 5833 5833 5834 5834 5835 5835 5835 5835 5836 5836 5836 5837
5777 5779 5781 5782 5783 5784 5785 5786 5788 5789 5790 5792 5793 5794 5795 5797 5798 5800 5801 5803 5805 5806 5808 5810 5812 5813 5815 5817 5818 5820 5821 5823 5824 5825 5826 5827 5827 5828 5828 5829 5829 5829 5829 5829 5830 5830 5831 5832 5832
5771 5773 5774 5775 5776 5777 5778 5779 5781 5782 5784 5785 5786 5787 5789 5790 5792 5794 5795 5797 5799 5801 5803 5805 5807 5808 5810 5812 5813 5815 5816 5817 5819 5820 5821 5821 5822 5822 5823 5823 5824 5824 5824 5824 5824 5825 5825 5826 5827
5765 5766 5767 5768 5769 5770 5771 5772 5774 5775 5777 5778 5778 5780 5781 5783 5785 5787 5789 5791 5793 5795 5797 5799 5801 5803 5804 5806 5808 5809 5810 5812 5813 5814 5815 5816 5816 5817 5817 5817 5817 5817 5818 5818 5818 5819 5819 5820 5821
5758 5760 5760 5761 5762 5763 5764 5765 5766 5768 5768 5769 5770 5772 5774 5777 5779 5781 5783 5785 5786 5789 5791 5793 5795 5796 5798 5800 5801 5803 5804 5805 5807 5808 5809 5810 5810 5810 5810 5811 5811 5811 5811 5811 5811 5812 5812 5813 5814
5752 5752 5753 5754 5754 5755 5757 5758 5759 5761 5761 5762 5763 5765 5767 5770 5772 5774 5776 5778 5780 5782 5784 5786 5788 5790 5791 5793 5795 5796 5797 5799 5800 5801 5802 5803 5803 5803 5803 5803 5803 5804 5803 5804 5804 5804 5805 5806 5807
5745 5745 5746 5747 5747 5748 5749 5750 5752 5753 5754 5755 5756 5758 5760 5762 5765 5766 5768 5770 5772 5774 5777 5779 5781 5782 5784 5786 5787 5789 5790 5791 5792 5794 5794 5795 5795 5796 5796 5796 5796 5796 5796 5796 5796 5796 5797 5798 5799
5737 5738 5739 5740 5740 5740 5742 5744 5745 5746 5747 5748 5749 5751 5752 5754 5756 5758 5760 5762 5764 5766 5769 5771 5773 5775 5776 5778 5780 5781 5783 5784 5785 5786 5787 5787 5788 5788 5788 5788 5788 5788 5788 5788 5788 5788 5789 5790 5791
5730 5731 5731 5733 5732 5732 5733 5736 5738 5738 5739 5741 5742 5744 5744 5746 5748 5749 5751 5754 5755 5758 5760 5763 5765 5767 5768 5770 5772 5773 5775 5776 5777 5778 5779 5779 5780 5780 5780 5780 5780 5779 5779 5779 5780 5780 5781 5783 5784
5723 5723 5724 5725 5725 5725 5725 5727 5730 5731 5731 5733 5734 5735 5736 5737 5739 5740 5742 5744 5746 5749 5751 5754 5756 5758 5759 5761 5763 5764 5766 5768 5769 5770 5770 5771 5771 5771 5771 5771 5771 5771 5771 5771 5771 5772 5773 5774 5775
5715 5715 5716 5717 5717 5717 5718 5719 5721 5722 5723 5724 5725 5726 5727 5728 5730 5731 5733 5735 5737 5739 5742 5744 5747 5748 5750 5752 5754 5755 5757 5759 5760 5761 5761 5762 5762 5762 5762 5762 5762 5762 5762 5762 5763 5764 5765 5766 5767
5707 5707 5708 5709 5709 5709 5710 5712 5713 5714 5715 5716 5716 5717 5717 5719 5720 5722 5724 5726 5727 5730 5732 5734 5737 5739 5740 5743 5744 5746 5747 5749 5751 5751 5752 5752 5753 5752 5752 5752 5752 5753 5753 5754 5754 5755 5756 5757 5758
5700 5700 5701 5701 5701 5701 5702 5704 5706 5706 5706 5707 5707 5707 5708 5709 5711 5713 5715 5717 5718 5721 5723 5725 5727 5728 5730 5732 5734 5736 5737 5739 5741 5742 5742 5743 5743 5743 5742 5743 5743 5743 5744 5745 5745 5746 5748 5748 5749
5693 5693 5693 5693 5693 5694 5694 5694 5698 5698 5698 5698 5699 5699 5699 5701 5702 5704 5706 5708 5710 5712 5713 5715 5717 5718 5720 5722 5724 5726 5727 5729 5731 5732 5732 5732 5733 5732 5732 5732 5733 5733 5734 5735 5736 5737 5738 5739 5740
5685 5685 5685 5685 5685 5686 5686 5685 5689 5689 5689 5689 5690 5690 5691 5692 5693 5695 5697 5699 5701 5702 5704 5705 5707 5708 5710 5711 5713 5714 5716 5718 5719 5721 5722 5722 5722 5722 5721 5722 5722 5723 5724 5725 5726 5727 5728 5729 5730
5677 5677 5677 5677 5677 5678 5679 5678 5679 5680 5680 5680 5681 5681 5682 5683 5684 5686 5687 5689 5691 5693 5694 5695 5696 5698 5699 5700 5701 5703 5705 5706 5708 5709 5710 5711 5711 5711 5711 5711 5712 5713 5713 5714 5715 5716 5717 5718 5719
5669 5670 5669 5669 5669 5670 5671 5670 5672 5672 5671 5671 5672 5672 5672 5673 5675 5677 5678 5680 5682 5683 5684 5685 5686 5688 5689 5689 5690 5691 5693 5694 5696 5697 5698 5699 5700 5700 5700 5701 5701 5702 5703 5703 5704 5705 5706 5707 5708
5661 5662 5662 5661 5661 5662 5662 5662 5665 5664 5663 5663 5663 5663 5663 5664 5666 5667 5669 5671 5672 5673 5675 5675 5676 5677 5678 5679 5679 5680 5681 5682 5684 5685 5686 5687 5688 5689 5689 5689 5690 5691 5691 5692 5693 5694 5695 5696 5697
5653 5654 5654 5653 5652 5652 5653 5654 5656 5655 5655 5654 5654 5654 5655 5656 5657 5658 5660 5661 5662 5664 5665 5666 5666 5667 5668 5668 5668 5669 5669 5670 5672 5673 5674 5675 5676 5677 5677 5678 5679 5679 5680 5681 5682 5683 5684 5685 5686
5646 5646 5646 5644 5643 5643 5644 5645 5647 5647 5646 5646 5645 5645 5646 5647 5648 5649 5650 5652 5653 5654 5655 5655 5656 5657 5658 5658 5658 5658 5658 5659 5660 5661 5662 5663 5664 5664 5665 5665 5666 5667 5668 5670 5671 5672 5672 5673 5674
5638 5638 5637 5636 5636 5635 5634 5639 5638 5637 5636 5636 5636 5636 5636 5637 5638 5640 5641 5642 5643 5644 5645 5645 5646 5647 5647 5647 5647 5647 5647 5648 5648 5649 5650 5651 5652 5652 5653 5654 5654 5655 5657 5658 5659 5660 5661 5662 5662
5629 5629 5629 5629 5628 5626 5626 5631 5629 5628 5627 5627 5626 5626 5627 5628 5629 5630 5631 5632 5633 5634 5635 5635 5636 5636 5637 5637 5637 5637 5637 5637 5637 5637 5638 5638 5639 5640 5641 5642 5643 5643 5644 5646 5647 5648 5649 5650 5651